Weather History for KMIB - October, 2013

Change the Weather History Date:

Friday, October 18, 2013

  Actual Average Record
Temperature  
Mean Temperature 37 °F -  
Max Temperature 44 °F 51 °F 80 °F (2000)
Min Temperature 30 °F 29 °F 19 °F (1996)
Degree Days  
Heating Degree Days 28    
Moisture  
Dew Point 34 °F    
Average Humidity 78    
Maximum Humidity 99    
Minimum Humidity 57    
Precipitation  
Precipitation 0.01 in - - ()
Sea Level Pressure  
Sea Level Pressure 29.93 in    
Wind  
Wind Speed 11 mph (WNW)    
Max Wind Speed 21 mph    
Max Gust Speed 28 mph    
Visibility 10 miles    
Events Rain    
Averages and records for this station are not official NWS values.
T = Trace of Precipitation, MM = Missing Value Source: NWS Daily Summary

Daily Weather History Graph

Daily Weather History Graph

Search for Another Location

Airport or City:

Trip Planner

Search our weather history database for the weather conditions in past years. The results will help you decide how hot, cold, wet, or windy it might be!

Date:

Astronomy

Oct. 18, 2013 Rise Set
Actual Time 8:10 AM CDT 6:49 PM CDT
Civil Twilight 7:38 AM CDT 7:21 PM CDT
Nautical Twilight 7:02 AM CDT 7:57 PM CDT
Astronomical Twilight 6:25 AM CDT 8:34 PM CDT
Moon 6:39 PM CDT (10/18) 7:48 AM CDT (10/18)
Length of Visible Light 11h 43m
Length of Day
10h 39m
Full, 100% of the Moon is Illuminated
Oct 18
Full
Oct 18
Full
Oct 26
Last Quarter
Nov 3
New
Nov 9
First Quarter

Hourly Weather History & Observations

Time (CDT) Temp. Windchill Dew Point Humidity Pressure Visibility Wind Dir Wind Speed Gust Speed Precip Events Conditions
12:58 AM 39.6 °F 33.5 °F 31.5 °F 73% 30.02 in 10.0 mi NW 9.2 mph - N/A   Scattered Clouds
1:58 AM 38.5 °F 32.7 °F 32.0 °F 78% 30.01 in 10.0 mi WNW 8.1 mph - N/A   Overcast
2:58 AM 38.5 °F 32.1 °F 32.9 °F 80% 30.01 in 10.0 mi NW 9.2 mph - N/A   Overcast
3:58 AM 37.2 °F 31.2 °F 33.8 °F 87% 30.01 in 10.0 mi WNW 8.1 mph - N/A   Overcast
4:58 AM 32.5 °F 25.5 °F 31.3 °F 95% 30.02 in 10.0 mi West 8.1 mph - N/A   Clear
5:58 AM 30.7 °F 23.3 °F 30.4 °F 99% 30.01 in 10.0 mi West 8.1 mph - N/A   Clear
6:58 AM 33.3 °F 26.4 °F 31.5 °F 93% 30.02 in 10.0 mi West 8.1 mph - N/A   Overcast
7:58 AM 35.1 °F 26.9 °F 32.2 °F 89% 30.02 in 10.0 mi WNW 11.5 mph - N/A   Overcast
8:58 AM 36.1 °F 28.7 °F 33.8 °F 91% 30.02 in 10.0 mi West 10.4 mph - N/A   Mostly Cloudy
9:58 AM 37.9 °F 30.0 °F 34.2 °F 86% 30.02 in 10.0 mi West 12.7 mph - N/A   Overcast
10:58 AM 39.6 °F 31.3 °F 34.7 °F 83% 30.01 in 10.0 mi WNW 15.0 mph - N/A   Partly Cloudy
11:58 AM 41.0 °F 32.8 °F 34.7 °F 78% 29.98 in 10.0 mi West 16.1 mph 20.7 mph 0.00 in   Partly Cloudy
12:38 PM 42.8 °F 35.1 °F 33.8 °F 70% 29.91 in 10.0 mi WNW 16.1 mph 20.7 mph N/A   Mostly Cloudy
12:48 PM 42.8 °F 34.5 °F 33.8 °F 70% 29.91 in 10.0 mi WNW 18.4 mph - N/A   Mostly Cloudy
12:58 PM 43.2 °F 35.6 °F 34.3 °F 71% 29.97 in 10.0 mi WNW 16.1 mph 24.2 mph 0.00 in   Mostly Cloudy
1:33 PM 44.6 °F 36.9 °F 33.8 °F 66% 29.89 in 10.0 mi WNW 18.4 mph 26.5 mph N/A   Mostly Cloudy
1:43 PM 44.6 °F 36.4 °F 32.0 °F 61% 29.89 in 10.0 mi WNW 20.7 mph 27.6 mph N/A   Mostly Cloudy
1:58 PM 44.2 °F 37.0 °F 32.9 °F 64% 29.93 in 10.0 mi WNW 16.1 mph 27.6 mph 0.00 in   Scattered Clouds
2:58 PM 44.1 °F 36.5 °F 29.7 °F 57% 29.91 in 10.0 mi WNW 17.3 mph - N/A   Mostly Cloudy
3:58 PM 44.4 °F 37.5 °F 30.9 °F 59% 29.88 in 10.0 mi WNW 15.0 mph - 0.00 in   Scattered Clouds
4:58 PM 42.8 °F 35.4 °F 35.6 °F 76% 29.88 in 10.0 mi WNW 15.0 mph 18.4 mph 0.00 in Rain Light Rain
5:03 PM 42.8 °F 37.0 °F 35.6 °F 76% 29.82 in 10.0 mi WNW 10.4 mph - N/A Rain Light Rain
5:13 PM 42.8 °F 38.6 °F 35.6 °F 76% 29.81 in 10.0 mi WNW 6.9 mph - N/A Rain Light Rain
5:58 PM 42.4 °F 36.1 °F 37.2 °F 82% 29.86 in 10.0 mi West 11.5 mph - 0.01 in   Overcast
6:58 PM 43.3 °F 36.5 °F 36.7 °F 77% 29.85 in 10.0 mi West 13.8 mph - N/A   Mostly Cloudy
7:58 PM 41.2 °F 35.5 °F 36.9 °F 85% 29.84 in 10.0 mi West 9.2 mph - N/A   Mostly Cloudy
8:58 PM 39.2 °F 33.6 °F 35.6 °F 87% 29.83 in 10.0 mi West 8.1 mph - N/A   Mostly Cloudy
9:58 PM 40.1 °F 34.1 °F 35.4 °F 83% 29.82 in 10.0 mi West 9.2 mph - N/A   Partly Cloudy
10:58 PM 41.7 °F 33.1 °F 34.7 °F 76% 29.83 in 10.0 mi NNW 18.4 mph - N/A   Partly Cloudy
11:58 PM 38.1 °F 31.7 °F 33.6 °F 84% 29.84 in 10.0 mi NNE 9.2 mph - N/A   Mostly Cloudy